Location: Acheville
(50.3840°N, 2.8827°E)
Time: 15:40:15
(UTC+00:00)

SL-16 R/B - Pass Details

Date: 24 October 2021
Orbit: 842 x 846 km, 71.0° (Epoch: 28 November)

Event Time Altitude Azimuth Distance (km) Brightness Sun altitude
Rises 17:52:13 0° 196° (SSW) 3,388 5.6 -12.3°
Reaches altitude 10° 17:54:40 10° 193° (SSW) 2,458 4.8 -12.7°
Maximum altitude 18:00:13 62° 113° (ESE) 946 2.2 -13.6°
Drops below altitude 10° 18:05:49 10° 34° (NE) 2,477 4.3 -14.5°
Enters shadow 18:07:55 - 32° (NNE) 3,273 4.9 -14.8°
